Location: ??????
(55.7522°N, 37.6156°E)
Time: 12:17:51
(UTC+00:00)

USA 229 DEB - Pass Details

Date: 13 December 2025
Orbit: 844 x 1364 km, 63.4° (Epoch: 10 January)

Event Time Altitude Azimuth Distance (km) Brightness Sun altitude
Exits shadow 04:52:43 - 305° (NW) 3,183 5.5 -7.4°
Reaches altitude 10° 04:53:05 10° 303° (WNW) 3,070 5.4 -7.4°
Maximum altitude 04:59:49 39° 239° (WSW) 1,799 4.7 -6.6°
Drops below altitude 10° 05:07:10 10° 175° (S) 3,351 6.9 -5.7°
Sets 05:10:19 0° 168° (SSE) 4,356 7.7 -5.3°
